Location: Austin
(30.3000°N, 97.7500°W)
Time: 11:56:43
(UTC-05:00)

Cosmos 2084 - Pass Details

Date: 26 May 2023
Orbit: 489 x 674 km, 62.8° (Epoch: 30 May)

Event Time Altitude Azimuth Distance (km) Brightness Sun altitude
Exits shadow 22:25:14 20° 220° (SW) 1,251 5.1 -22.3°
Maximum altitude 22:27:50 67° 300° (WNW) 562 3.4 -22.7°
Drops below altitude 10° 22:31:39 10° 24° (NNE) 1,714 6.1 -23.3°
Sets 22:33:47 0° 27° (NNE) 2,585 7.0 -23.6°
